7 * 24
多渠道服务支持
SES 21是由欧洲卫星公司SES主导研发的通信卫星,于2022年10月4日发射入轨,定位于地球同步轨道,属于SES全球通信卫星星座组网的一部分。该卫星主要承担接替老旧卫星、拓展北美地区通信广播业务的任务,为当地提供稳定的卫星电视传输、宽带网络接入与数据通信服务,进一步强化了SES在北美市场的通信服务覆盖能力与可靠性,设计服役寿命超过15年。
(SES)
| 数据来源 | 国际轨道数据 |
| 星历时间: | 2026-07-27T20:10:39+0800 9小时前 查看轨道信息 |
| 半长轴: | 42165.962km |
| 偏心率: | 0.000086 |
| 轨道倾角: | 0.036° |
| 近地点辐角 | 82.645° |
| 升交点赤经 | 48.342° |
| 平近点角 | 225.938° |
| 近地点: | 35784.198km |
| 远地点: | 35791.452km |
| 周期: | 1436.160分钟 |
| 每日圈数: | 1.002674 |